Weather in Balakhninskiy

Russia / Irkutsk Oblast     58°00′37″N   114°16′35″E
temp.,
°C
wind,
m/s
gust,
m/s
humid.,
%
clouds,
%
prec.,
mm/h
press.,
hPa
HPBL,
m
27 january, thu
thu2723:00−29ene1110089 0.1 104311
02:00−31ene1110082 0.1 10449
05:00−34ne1110091 0.0 10459
08:00−35ne1110095 0.0 10479
11:00−30sse119892 0.0 104585
14:00−26ssw009363 0.0 1043161
17:00−31nne1110021 0.0 10469
20:00−34ne1110054 0.0 10489
28 january, fri
fri2823:00−35ne1110069 0.0 10489
02:00−36ne1110070 0.0 10499
05:00−36ne1110072 0.0 10499
08:00−37ene1110085 0.0 10509
11:00−31ssw009897 0.0 104789
14:00−26sw119581 0.0 1044152
17:00−31n0110054 0.0 10469
20:00−34ne1110058 0.0 10479
29 january, sat
sat2923:00−35ne1110078 0.0 10479
02:00−36ne1110088 0.0 10479
05:00−36ne1110091 0.0 10479
08:00−36ene11100100 0.0 104710
11:00−31ssw009895 0.0 104592
14:00−26sw119590 0.0 1042150
17:00−31nne1110039 0.0 10449
20:00−34ne1110059 0.0 10459
30 january, sun
sun3023:00−35ne1110082 0.0 10469
02:00−35ne1110094 0.0 104612
05:00−32ne11100100 0.0 104522
08:00−32ne11100100 0.1 104511
11:00−27wsw009591 0.1 1043130
14:00−24sw009493 0.1 1041184
17:00−29nne1110054 0.0 10439
20:00−32ne2110075 0.0 10449
31 january, mon
mon3123:00−34ne2110093 0.0 10459
02:00−35ne2110098 0.0 10459
05:00−36ne1110093 0.0 10459
08:00−37ne1110093 0.0 10459
11:00−30se119995 0.0 104390
14:00−25s119267 0.0 1040169
17:00−31ne111005 0.0 10429
20:00−34ne2110049 0.0 10449